When you browse on this site, cookies collect data to enhance your experience and personalize the content and advertising you see.
Visit our Privacy Policy to learn more. By continuing to use the site, you agree to this use of cookies and data.
  • în România
  • Lista ţărilor
  • Pe 7 zile
  • Temperatura apei
  • Hartă satelitară
  • Meteo pe hartă
  • Widget-uri
  • user-avatar
    Intrare

    Meteo pe oră la Eruslanovka

    Astăzi, 16 Ianuarie, Miercuri

    Timp Temperatura Precipitaţii Vânt Presiune Umiditate
    00:00 0°C° 0 mm 3 m/s 719 mmHg 78%
    01:00 +1°C° 0 mm 2 m/s 719 mmHg 75%
    02:00 +2°C° 0 mm 2 m/s 719 mmHg 72%
    03:00 +1°C° 0 mm 0 m/s 718 mmHg 77%
    04:00 +3°C° 0 mm 1 m/s 719 mmHg 73%
    05:00 +3°C° 0 mm 1 m/s 719 mmHg 69%
    06:00 +4°C° 0 mm 1 m/s 719 mmHg 65%
    07:00 +5°C° 0 mm 1 m/s 719 mmHg 61%
    08:00 +5°C° 0 mm 1 m/s 719 mmHg 58%
    09:00 +7°C° 0 mm 1 m/s 718 mmHg 54%
    10:00 +7°C° 0 mm 2 m/s 719 mmHg 55%
    11:00 +6°C° 0 mm 4 m/s 720 mmHg 56%
    12:00 +7°C° 0 mm 5 m/s 720 mmHg 58%
    13:00 +4°C° 0 mm 6 m/s 721 mmHg 65%
    14:00 +3°C° 0 mm 7 m/s 722 mmHg 72%
    15:00 0°C° 0 mm 8 m/s 722 mmHg 80%
    16:00 -1°C° 0 mm 7 m/s 723 mmHg 80%
    17:00 -2°C° 0 mm 6 m/s 724 mmHg 80%
    18:00 -2°C° 0 mm 5 m/s 724 mmHg 80%
    19:00 -2°C° 0.1 mm 5 m/s 725 mmHg 79%
    20:00 -2°C° 0.1 mm 4 m/s 725 mmHg 79%
    21:00 -3°C° 0.1 mm 4 m/s 726 mmHg 78%
    22:00 -3°C° 0 mm 4 m/s 726 mmHg 76%
    23:00 -2°C° 0 mm 3 m/s 727 mmHg 75%

    Mâine, 17 Ianuarie, Joi

    Timp Temperatura Precipitaţii Vânt Presiune Umiditate
    00:00 -2°C° 0 mm 3 m/s 727 mmHg 74%
    01:00 -2°C° 0 mm 2 m/s 727 mmHg 74%
    02:00 -2°C° 0 mm 2 m/s 728 mmHg 74%
    03:00 -2°C° 0 mm 2 m/s 728 mmHg 75%
    04:00 0°C° 0 mm 1 m/s 728 mmHg 75%
    05:00 0°C° 0 mm 1 m/s 729 mmHg 75%
    06:00 0°C° 0 mm 1 m/s 729 mmHg 75%
    07:00 0°C° 0 mm 1 m/s 730 mmHg 75%
    08:00 -1°C° 0 mm 0 m/s 730 mmHg 74%
    09:00 -1°C° 0 mm 0 m/s 731 mmHg 73%
    10:00 0°C° 0 mm 0 m/s 731 mmHg 71%
    11:00 +1°C° 0 mm 1 m/s 731 mmHg 68%
    12:00 +2°C° 0 mm 1 m/s 732 mmHg 65%
    13:00 +2°C° 0 mm 1 m/s 732 mmHg 64%
    14:00 +2°C° 0 mm 1 m/s 732 mmHg 64%
    15:00 +2°C° 0 mm 1 m/s 732 mmHg 63%
    16:00 +2°C° 0 mm 1 m/s 733 mmHg 69%
    17:00 +1°C° 0 mm 1 m/s 733 mmHg 74%
    18:00 0°C° 0 mm 1 m/s 734 mmHg 80%
    19:00 0°C° 0 mm 1 m/s 734 mmHg 80%
    20:00 0°C° 0 mm 1 m/s 735 mmHg 80%
    21:00 0°C° 0 mm 1 m/s 735 mmHg 80%
    22:00 0°C° 0 mm 1 m/s 735 mmHg 77%
    23:00 -1°C° 0 mm 0 m/s 735 mmHg 74%

    Poimâine, 18 Ianuarie, Vineri

    Timp Temperatura Precipitaţii Vânt Presiune Umiditate
    00:00 -1°C° 0 mm 0 m/s 736 mmHg 72%
    01:00 -1°C° 0 mm 0 m/s 736 mmHg 69%
    02:00 -1°C° 0 mm 0 m/s 736 mmHg 66%
    03:00 -1°C° 0 mm 0 m/s 736 mmHg 64%
    04:00 -1°C° 0 mm 0 m/s 736 mmHg 61%
    05:00 0°C° 0 mm 1 m/s 736 mmHg 58%
    06:00 0°C° 0 mm 1 m/s 736 mmHg 55%
    07:00 +1°C° 0 mm 1 m/s 736 mmHg 52%
    08:00 +1°C° 0 mm 1 m/s 737 mmHg 49%
    09:00 +2°C° 0 mm 1 m/s 737 mmHg 46%
    10:00 +3°C° 0 mm 1 m/s 737 mmHg 43%
    11:00 +4°C° 0 mm 1 m/s 736 mmHg 40%
    12:00 +5°C° 0 mm 1 m/s 736 mmHg 37%
    13:00 +5°C° 0 mm 1 m/s 735 mmHg 40%
    14:00 +5°C° 0 mm 1 m/s 735 mmHg 42%
    15:00 +5°C° 0 mm 2 m/s 735 mmHg 45%
    16:00 +3°C° 0 mm 2 m/s 735 mmHg 50%
    17:00 +3°C° 0 mm 1 m/s 735 mmHg 55%
    18:00 +2°C° 0 mm 1 m/s 735 mmHg 60%
    19:00 +1°C° 0 mm 1 m/s 735 mmHg 59%
    20:00 +1°C° 0 mm 1 m/s 735 mmHg 57%
    21:00 +1°C° 0 mm 1 m/s 735 mmHg 55%
    22:00 +1°C° 0 mm 1 m/s 735 mmHg 53%
    23:00 +2°C° 0 mm 1 m/s 735 mmHg 50%

    19 Ianuarie, Sâmbătă

    Timp Temperatura Precipitaţii Vânt Presiune Umiditate
    00:00 +2°C° 0 mm 1 m/s 735 mmHg 47%
    01:00 +2°C° 0 mm 1 m/s 735 mmHg 44%
    02:00 +2°C° 0 mm 1 m/s 735 mmHg 42%
    03:00 +2°C° 0 mm 1 m/s 735 mmHg 39%
    04:00 +2°C° 0 mm 1 m/s 735 mmHg 38%
    05:00 +2°C° 0 mm 1 m/s 735 mmHg 36%
    06:00 +2°C° 0 mm 1 m/s 735 mmHg 34%
    07:00 +3°C° 0 mm 1 m/s 735 mmHg 34%
    08:00 +3°C° 0 mm 1 m/s 735 mmHg 33%
    09:00 +4°C° 0 mm 1 m/s 736 mmHg 32%
    10:00 +5°C° 0 mm 1 m/s 736 mmHg 30%
    11:00 +7°C° 0 mm 1 m/s 736 mmHg 29%
    12:00 +8°C° 0 mm 1 m/s 736 mmHg 28%
    13:00 +8°C° 0 mm 1 m/s 735 mmHg 33%
    14:00 +8°C° 0 mm 1 m/s 735 mmHg 39%
    15:00 +7°C° 0 mm 1 m/s 735 mmHg 45%
    16:00 +6°C° 0 mm 1 m/s 735 mmHg 50%
    17:00 +5°C° 0 mm 1 m/s 735 mmHg 55%
    18:00 +2°C° 0 mm 0 m/s 736 mmHg 61%
    19:00 +2°C° 0 mm 0 m/s 736 mmHg 61%
    20:00 +3°C° 0 mm 1 m/s 736 mmHg 62%
    21:00 +3°C° 0 mm 1 m/s 736 mmHg 62%
    22:00 +3°C° 0 mm 1 m/s 736 mmHg 61%
    23:00 +3°C° 0 mm 1 m/s 736 mmHg 60%

    20 Ianuarie, Duminică

    Timp Temperatura Precipitaţii Vânt Presiune Umiditate
    00:00 +3°C° 0 mm 1 m/s 736 mmHg 59%
    01:00 +2°C° 0 mm 1 m/s 736 mmHg 59%
    02:00 +1°C° 0 mm 0 m/s 737 mmHg 60%
    03:00 +1°C° 0 mm 0 m/s 737 mmHg 60%
    04:00 +1°C° 0 mm 0 m/s 737 mmHg 62%
    05:00 +2°C° 0 mm 1 m/s 737 mmHg 64%
    06:00 +2°C° 0 mm 1 m/s 737 mmHg 67%
    07:00 +2°C° 0 mm 1 m/s 737 mmHg 67%
    08:00 +2°C° 0 mm 1 m/s 737 mmHg 67%
    09:00 +2°C° 0 mm 2 m/s 737 mmHg 67%
    10:00 +3°C° 0 mm 2 m/s 737 mmHg 61%
    11:00 +4°C° 0 mm 2 m/s 737 mmHg 55%
    12:00 +5°C° 0 mm 2 m/s 736 mmHg 49%
    13:00 +5°C° 0 mm 2 m/s 736 mmHg 50%
    14:00 +5°C° 0 mm 2 m/s 736 mmHg 51%
    15:00 +5°C° 0 mm 2 m/s 735 mmHg 52%
    16:00 +4°C° 0 mm 2 m/s 736 mmHg 59%
    17:00 +3°C° 0 mm 2 m/s 736 mmHg 66%
    18:00 +2°C° 0 mm 2 m/s 736 mmHg 73%
    19:00 +2°C° 0 mm 2 m/s 736 mmHg 75%
    20:00 +1°C° 0 mm 2 m/s 736 mmHg 77%
    21:00 +1°C° 0 mm 2 m/s 736 mmHg 79%
    22:00 +1°C° 0 mm 2 m/s 736 mmHg 79%
    23:00 +1°C° 0 mm 2 m/s 736 mmHg 78%

    21 Ianuarie, Luni

    Timp Temperatura Precipitaţii Vânt Presiune Umiditate
    00:00 +2°C° 0 mm 1 m/s 736 mmHg 77%
    01:00 +2°C° 0 mm 1 m/s 735 mmHg 77%
    02:00 +1°C° 0 mm 1 m/s 735 mmHg 77%
    03:00 +1°C° 0 mm 1 m/s 735 mmHg 77%
    04:00 +1°C° 0 mm 1 m/s 735 mmHg 77%
    05:00 +1°C° 0 mm 1 m/s 735 mmHg 77%
    06:00 +1°C° 0 mm 1 m/s 734 mmHg 77%
    07:00 +2°C° 0 mm 1 m/s 734 mmHg 74%
    08:00 +2°C° 0 mm 1 m/s 734 mmHg 71%
    09:00 +3°C° 0 mm 1 m/s 734 mmHg 68%
    10:00 +4°C° 0 mm 1 m/s 733 mmHg 62%
    11:00 +5°C° 0 mm 1 m/s 733 mmHg 56%
    12:00 +7°C° 0 mm 1 m/s 732 mmHg 49%
    13:00 +7°C° 0 mm 1 m/s 732 mmHg 51%
    14:00 +7°C° 0 mm 1 m/s 732 mmHg 52%
    15:00 +6°C° 0 mm 2 m/s 731 mmHg 53%
    16:00 +6°C° 0 mm 1 m/s 731 mmHg 58%
    17:00 +5°C° 0 mm 1 m/s 732 mmHg 64%
    18:00 +3°C° 0 mm 1 m/s 732 mmHg 69%
    19:00 +3°C° 0 mm 1 m/s 732 mmHg 67%
    20:00 +3°C° 0 mm 1 m/s 732 mmHg 65%
    21:00 +3°C° 0 mm 1 m/s 731 mmHg 63%
    22:00 +4°C° 0 mm 1 m/s 731 mmHg 60%
    23:00 +4°C° 0 mm 1 m/s 731 mmHg 58%
    Arată mai mult